Regional Weather Roundup
Issued by NWS Boston, MA

Home | Current Version | Previous Version | Text Only | Print | Product List | Glossary On
Versions: 1 2 3 4 5 6 7 8 9 10 11 12 13 14 15 16 17 18 19 20 21 22 23 24 25 26 27 28 29 30 31 32 33 34 35 36 37 38 39 40 41 42 43 44 45 46 47 48 49 50
000
ASUS41 KBOX 290610
RWRBOX

REGIONAL WEATHER ROUNDUP
NATIONAL WEATHER SERVICE TAUNTON MA
200 AM EDT SUN MAR 29 2015

NOTE:  "FAIR" INDICATES FEW OR NO CLOUDS BELOW 12,000 FEET WITH NO
SIGNIFICANT WEATHER AND/OR OBSTRUCTIONS TO VISIBILITY.  THE FOLLOWING
OBSERVATION LOCATIONS DO NOT REPORT PRESENT WEATHER...PROVINCETOWN...
SMITHFIELD...BLOCK ISLAND...KEENE...AND OXFORD.

MAZALL-290700-
EASTERN MASSACHUSETTS

CITY           SKY/WX    TMP DP  RH WIND       PRES   REMARKS
BOSTON         MOCLDY    28  13  53 NW14      30.06R WCI  17
6HR MIN TEMP:  28; 6HR MAX TEMP:  34; 6HR PCP:  0.01;

BEVERLY        MOCLDY    26   8  46 NW12      30.05R WCI  16
LAWRENCE       CLOUDY    27   7  42 NW7       30.08R WCI  19
BEDFORD        CLOUDY    25   8  48 NW12      30.06R WCI  14
BLUE HILL        N/A     24  15  68 NW16G24   30.00R WCI  11
NORWOOD        CLOUDY    29  20  69 NW3       30.06R
MARSHFIELD     CLOUDY    32  25  74 NW7       30.06R WCI  26
PLYMOUTH       LGT SNOW  29  26  89 NW10      30.04R FOG     WCI  20
TAUNTON        LGT SNOW  29  25  85 NW6       30.05R FOG     WCI  23
NEW BEDFORD    CLOUDY    30  27  88 N5        30.04R WCI  25
$$

MAZALL-290700-
CAPE COD AND THE ISLANDS

CITY           SKY/WX    TMP DP  RH WIND       PRES   REMARKS
FALMOUTH       CLOUDY    30  28  93 NW12      30.02S WCI  21
HYANNIS        CLOUDY    32  27  81 N10       30.00R WCI  24
CHATHAM        CLOUDY    32  29  88 NW8       30.02R WCI  25
PROVINCETOWN   CLOUDY    34  23  64 NW17G23   30.03R WCI  23
NANTUCKET      CLOUDY    34  30  85 NW8       30.01R WCI  27
MARTHAS VNYRD  LGT SNOW  31  26  82 N8        30.03R WCI  23
$$

MAZALL-290700-
CENTRAL AND WESTERN MASSACHUSETTS

CITY           SKY/WX    TMP DP  RH WIND       PRES   REMARKS
WORCESTER      CLOUDY    22   6  50 N13G20    30.01R WCI  10
6HR MIN TEMP:  22; 6HR MAX TEMP:  29; 6HR PCP: TRACE;

FITCHBURG      PTCLDY    25   6  44 NW9       30.07R WCI  15
ORANGE         PTCLDY    22   3  44 N7        30.07R WCI  13
SPRINGFIELD    PTCLDY    26   7  44 N8        30.07S WCI  17
WESTFIELD      CLOUDY    26   8  46 N9        30.09R WCI  17
NORTH ADAMS    CLEAR     19   7  59 W5        30.11S WCI  12
PITTSFIELD     MOCLDY    19   7  59 NW8       30.04S WCI   9
$$

RIZALL-290700-
RHODE ISLAND

CITY           SKY/WX    TMP DP  RH WIND       PRES   REMARKS
PROVIDENCE     LGT SNOW  27  21  78 NW13      30.06R WCI  16
6HR MIN TEMP:  27; 6HR MAX TEMP:  33; 6HR PCP:  0.08;

NEWPORT        CLOUDY    28  24  85 N15G21    30.04R WCI  16
BLOCK ISLAND   CLOUDY    28  27  93 N15G21    30.03R WCI  17
SMITHFIELD     PTCLDY    25  16  68 NW9       30.03R WCI  15
WESTERLY       CLOUDY    27  24  89 N15G25    30.06R WCI  15
$$

CTZALL-290700-
CONNECTICUT

CITY           SKY/WX    TMP DP  RH WIND       PRES   REMARKS
BRADLEY INTL   CLOUDY    28  10  46 N13       30.09R WCI  17
6HR MIN TEMP:  27; 6HR MAX TEMP:  31; 6HR PCP: TRACE;

HARTFORD       CLOUDY    28  13  53 N13       30.10R WCI  17
BRIDGEPORT     CLOUDY    28  17  63 NW8       30.11R WCI  20
DANBURY        CLOUDY    24   7  48 N13       30.11R WCI  12
GROTON         MIX PCPN  27  22  81 N18G24    30.06R WCI  14
NEW HAVEN      CLOUDY    28  20  71 NW7G18    30.08S WCI  21
CHESTER        CLOUDY    28  19  69 N14G21    30.05S WCI  17
MERIDEN        CLOUDY    28  16  60 N8        30.10R WCI  20
WILLIMANTIC    CLOUDY    27  11  51 N12       30.08R WCI  17
OXFORD         CLOUDY    25  10  54 N13G20    30.07S WCI  13
$$

MEZ002-015-021-024-NHZ003-005-008-011-012-014-VTZ005-008-290700-
NORTHERN NEW ENGLAND

CITY           SKY/WX    TMP DP  RH WIND       PRES   REMARKS
PORTLAND ME    PTCLDY    28   8  43 NW9       30.04R WCI  19
6HR MIN TEMP:  28; 6HR MAX TEMP:  38;

BANGOR ME      MOCLDY    26   6  42 NW14      29.99R WCI  14
CONCORD NH     PTCLDY    24   4  42 NW12      30.06R WCI  13
MANCHESTER NH  CLOUDY    25   6  44 N9        30.05R WCI  15
NASHUA NH      PTCLDY    26   4  39 NW13      30.08R WCI  15
PORTSMOUTH NH  MOCLDY    27   9  48 NW9       30.04R WCI  17
JAFFREY NH     CLOUDY    21   4  47 N5        30.03R WCI  15
KEENE NH       CLEAR     23   3  42 N5        30.08R WCI  17
BURLINGTON VT  CLEAR     16   9  74 CALM      30.12S
MT. WASHINGTON PTCLDY    -2 -11  65 N16         N/A  WCI -23
$$

NYZ052-076-290700-
EASTERN NEW YORK

CITY           SKY/WX    TMP DP  RH WIND       PRES   REMARKS
ALBANY         FAIR      20   4  50 NW8       30.16S WCI  10
6HR MIN TEMP:  20; 6HR MAX TEMP:  28; 6HR PCP: TRACE;

NEW YORK CITY  CLOUDY    27  15  61 N13G22    30.14R WCI  16
6HR MIN TEMP:  27; 6HR MAX TEMP:  33; 6HR PCP: TRACE;

$$

ANZALL-290700-
MARINE OBSERVATIONS

STATION/POSITION TIME  TEMP    WIND        PRES    VSBY  WAVE
                       AIR SEA DIR/SP/G                  HT/PER
                 (UTC) (F)     (DEG/KT/KT) (MB)    (MI)  (FT/S)
BOSTON BUOY      0550   30 36  330/ 16/ 19 1017.2R         7/ 8
BUZZARDS BAY     0500          360/ 13/ 13 1017.2R
NANTUCKET SOUND  0550   34 37  330/ 14/ 16 1016.3R         2/ 5
MASS BAY-STELLWA 0504   31 36  310/ 17/ 21   N/A    1 7/8  7/ 8
ISLE OF SHOALS   0600   29     330/ 16/ 18 1016.7R
S OF BLOCK IS    0508      37                N/A           5/11
$$

......................KEY.........................
  SKY/WX - SKY CONDITION/PRESENT WEATHER
  TMP    - TEMPERATURE IN FAHRENHEIT
  DWPT   - DEWPOINT IN FAHRENHEIT
  RH     - RELATIVE HUMIDITY IN PERCENT
  WIND   - DIRECTION AND SPEED IN MPH
  PRES   - MEAN SEA LEVEL PRESSURE IN INCHES OF HG
  WCI    - WIND CHILL INDEX
  VSB    - VISIBILITY IN MILES
  HX     - HEAT INDEX
  TC     - TEMPERATURE IN CELSIUS
  VRB    - VARIABLE WIND DIRECTION
  N/A    - NOT AVAILABLE



USA.gov is the U.S. government's official web portal to all federal, state and local government web resources and services.